timestamp,surface_pressure_avg,surface_temp_avg,battery_voltage,lat,long
2023-02-08 00:09:00+00:00,351.3779,0.46,12.65,47.84626,-54.09684
2023-02-08 00:19:00+00:00,352.218,0.45,12.65,47.84626,-54.09684
2023-02-08 00:29:00+00:00,358.3278,0.4,12.65,47.84626,-54.09684
2023-02-08 00:39:00+00:00,362.0397,0.42,12.65,47.84626,-54.09684
2023-02-08 00:49:00+00:00,357.4813,0.4,12.65,47.84626,-54.09684
2023-02-08 00:59:00+00:00,350.5345,0.4,12.65,47.84626,-54.09684
2023-02-08 01:09:00+00:00,354.6546,0.4,12.65,47.84626,-54.09684
2023-02-08 01:19:00+00:00,366.1963,0.4,12.65,47.84626,-54.09684
2023-02-08 01:29:00+00:00,356.033,0.36,12.65,47.84626,-54.09684
2023-02-08 01:39:00+00:00,341.7996,0.3,12.65,47.84626,-54.09684
2023-02-08 01:49:00+00:00,349.593,0.3,12.65,47.84626,-54.09684
2023-02-08 01:59:00+00:00,350.2963,0.2,12.65,47.84626,-54.09684
2023-02-08 02:09:00+00:00,334.5779,0.1,12.65,47.84626,-54.09684
2023-02-08 02:19:00+00:00,330.1880000000001,0.13,12.65,47.84626,-54.09684
2023-02-08 02:29:00+00:00,338.8363,0.19,12.65,47.84626,-54.09684
2023-02-08 02:39:00+00:00,332.798,0.1,12.65,47.84626,-54.09684
2023-02-08 02:49:00+00:00,316.5964,0.13,12.65,47.84626,-54.09684
2023-02-08 02:59:00+00:00,317.678,0.16,12.65,47.84626,-54.09684
2023-02-08 03:09:00+00:00,323.0463,0.13,12.65,47.84626,-54.09684
2023-02-08 03:19:00+00:00,309.4131,0.15,12.65,47.84626,-54.09684
2023-02-08 03:29:00+00:00,296.218,0.14,12.65,47.84626,-54.09684
2023-02-08 03:39:00+00:00,301.7947,0.18,12.65,47.84626,-54.09684
2023-02-08 03:49:00+00:00,297.988,0.15,12.65,47.84626,-54.09684
2023-02-08 03:59:00+00:00,272.5697,0.3,12.65,47.84626,-54.09684
2023-02-08 04:09:00+00:00,263.5797,0.3,12.65,47.84626,-54.09684
2023-02-08 04:19:00+00:00,277.1131,0.2,12.65,47.84626,-54.09684
2023-02-08 04:29:00+00:00,272.958,0.68,12.65,47.84626,-54.09684
2023-02-08 04:39:00+00:00,252.8547,0.46,12.65,47.84626,-54.09684
2023-02-08 04:49:00+00:00,249.438,0.4,12.65,47.84626,-54.09684
2023-02-08 04:59:00+00:00,250.6181,0.4,12.65,47.84626,-54.09684
2023-02-08 05:09:00+00:00,236.2664,0.4,12.65,47.84626,-54.09684
2023-02-08 05:19:00+00:00,228.1131,0.2,12.57,47.84626,-54.09684
2023-02-08 05:29:00+00:00,234.0498,0.1,12.57,47.84626,-54.09684
2023-02-08 05:39:00+00:00,229.4114,0.1,12.57,47.84626,-54.09684
2023-02-08 05:49:00+00:00,215.5647,0.1,12.57,47.84626,-54.09684
2023-02-08 05:59:00+00:00,207.2331,0.1,12.57,47.84626,-54.09684
2023-02-08 06:09:00+00:00,209.2598,0.1,12.57,47.84626,-54.09684
2023-02-08 06:19:00+00:00,207.1598,0.1,12.57,47.84626,-54.09684
2023-02-08 06:29:00+00:00,192.8165,0.1,12.57,47.84626,-54.09684
2023-02-08 06:39:00+00:00,189.3014,-0.01,12.57,47.84626,-54.09684
2023-02-08 06:49:00+00:00,198.6732,-0.1,12.57,47.84626,-54.09684
2023-02-08 06:59:00+00:00,195.5714,-0.1,12.57,47.84626,-54.09684
2023-02-08 07:09:00+00:00,191.2814,-0.1,12.57,47.84626,-54.09684
2023-02-08 07:19:00+00:00,197.2765,-0.1,12.57,47.84626,-54.09684
2023-02-08 07:29:00+00:00,195.6715,-0.1,12.57,47.84626,-54.09684
2023-02-08 07:39:00+00:00,188.8148,-0.12,12.57,47.84626,-54.09684
2023-02-08 07:49:00+00:00,191.0481,-0.17,12.57,47.84626,-54.09684
2023-02-08 07:59:00+00:00,193.6198,-0.1,12.57,47.84626,-54.09684
2023-02-08 08:09:00+00:00,190.2898,-0.1,12.57,47.84626,-54.09684
2023-02-08 08:19:00+00:00,190.3398,-0.06,12.57,47.84626,-54.09684
2023-02-08 08:29:00+00:00,199.9531,-0.1,12.57,47.84626,-54.09684
2023-02-08 08:39:00+00:00,200.8798,-0.04,12.57,47.84626,-54.09684
2023-02-08 08:49:00+00:00,204.5565,0.0,12.57,47.84626,-54.09684
2023-02-08 08:59:00+00:00,216.4115,0.15,12.57,47.84626,-54.09684
2023-02-08 09:09:00+00:00,221.6731,0.19,12.57,47.84626,-54.09684
2023-02-08 09:19:00+00:00,219.9131,0.1,12.57,47.84626,-54.09684
2023-02-08 09:29:00+00:00,223.0731,0.0,12.57,47.84626,-54.09684
2023-02-08 09:39:00+00:00,231.9164,0.1,12.57,47.84626,-54.09684
2023-02-08 09:49:00+00:00,233.9381,0.16,12.57,47.84626,-54.09684
2023-02-08 09:59:00+00:00,227.8681,0.2,12.57,47.84626,-54.09684
2023-02-08 10:09:00+00:00,236.7731,0.2,12.57,47.84626,-54.09684
2023-02-08 10:19:00+00:00,248.3564,0.2,12.57,47.84626,-54.09684
2023-02-08 10:29:00+00:00,249.3097,0.2,12.57,47.84626,-54.09684
2023-02-08 10:39:00+00:00,251.2164,0.2,12.57,47.84626,-54.09684
2023-02-08 10:49:00+00:00,265.3163,0.2,12.57,47.84626,-54.09684
2023-02-08 10:59:00+00:00,272.4014,0.18,12.57,47.84626,-54.09684
2023-02-08 11:09:00+00:00,276.7947,-0.18,12.57,47.84626,-54.09684
2023-02-08 11:19:00+00:00,292.288,0.1,12.57,47.84626,-54.09684
2023-02-08 11:29:00+00:00,306.8446,0.1,12.57,47.84626,-54.09684
2023-02-08 11:39:00+00:00,306.0214,-0.1,12.57,47.84626,-54.09684
2023-02-08 11:49:00+00:00,305.658,-0.1,12.57,47.84626,-54.09684
2023-02-08 11:59:00+00:00,315.903,0.04,12.57,47.84626,-54.09684
2023-02-08 12:09:00+00:00,324.278,0.08,12.57,47.84626,-54.09684
2023-02-08 12:19:00+00:00,324.3447,0.08,12.57,47.84626,-54.09684
2023-02-08 12:29:00+00:00,325.3096,0.08,12.57,47.84626,-54.09684
2023-02-08 12:39:00+00:00,330.028,0.06,12.57,47.84626,-54.09684
2023-02-08 12:49:00+00:00,334.5563,0.0,12.57,47.84626,-54.09684
2023-02-08 12:59:00+00:00,336.6879,0.03,12.57,47.84626,-54.09684
2023-02-08 13:09:00+00:00,336.4463,0.0,12.57,47.84626,-54.09684
2023-02-08 13:19:01+00:00,339.11300000000006,0.0,12.65,47.84626,-54.09684
2023-02-08 13:29:01+00:00,337.4612,0.0,12.65,47.84626,-54.09684
2023-02-08 13:39:01+00:00,342.9197,0.0,12.65,47.84626,-54.09684
2023-02-08 13:49:01+00:00,346.2097,0.0,12.65,47.84626,-54.09684
2023-02-08 13:59:01+00:00,340.3730000000001,-0.01,12.65,47.84626,-54.09684
2023-02-08 14:09:01+00:00,336.6979,-0.05,12.65,47.84626,-54.09684
2023-02-08 14:19:00+00:00,334.983,0.39,12.65,47.84626,-54.09684
2023-02-08 14:29:00+00:00,334.6579,0.8,12.65,47.84626,-54.09684
2023-02-08 14:39:00+00:00,333.9914,0.66,12.65,47.84626,-54.09684
2023-02-08 14:49:00+00:00,327.478,0.8,12.65,47.84626,-54.09684
2023-02-08 14:59:00+00:00,322.1163,0.8,12.65,47.84626,-54.09684
2023-02-08 15:09:00+00:00,318.2413,0.8,12.65,47.84626,-54.09684
2023-02-08 15:19:00+00:00,320.9497,0.7,12.89,47.84626,-54.09684
2023-02-08 15:29:00+00:00,316.7947,0.65,12.89,47.84626,-54.09684
2023-02-08 15:39:00+00:00,307.7313,0.56,12.89,47.84626,-54.09684
2023-02-08 15:49:00+00:00,300.8813,0.72,12.89,47.84626,-54.09684
2023-02-08 15:59:00+00:00,295.298,0.87,12.89,47.84626,-54.09684
2023-02-08 16:09:00+00:00,286.1313,1.05,12.89,47.84626,-54.09684
2023-02-08 16:19:00+00:00,279.2614,1.07,13.68,47.84626,-54.09684
2023-02-08 16:29:00+00:00,276.7114,0.71,13.68,47.84626,-54.09684
2023-02-08 16:39:00+00:00,269.8997,-0.05,13.68,47.84626,-54.09684
2023-02-08 16:49:00+00:00,259.9464,-0.04,13.68,47.84626,-54.09684
2023-02-08 16:59:00+00:00,255.9631,0.1,13.68,47.84626,-54.09684
2023-02-08 17:09:00+00:00,252.4581,0.19,13.68,47.84626,-54.09684
2023-02-08 17:19:00+00:00,238.5831,0.1,13.84,47.84626,-54.09684
2023-02-08 17:29:00+00:00,229.5631,0.1,13.84,47.84626,-54.09684
2023-02-08 17:39:00+00:00,230.5248,0.2,13.84,47.84626,-54.09684
2023-02-08 17:49:00+00:00,223.3248,0.2,13.84,47.84626,-54.09684
2023-02-08 17:59:00+00:00,206.9648,0.2,13.84,47.84626,-54.09684
2023-02-08 18:09:00+00:00,197.7481,0.2,13.84,47.84626,-54.09684
2023-02-08 18:19:01+00:00,194.8198,0.2,13.44,47.84626,-54.09684
2023-02-08 18:29:01+00:00,184.0215,0.2,13.44,47.84626,-54.09684
2023-02-08 18:39:01+00:00,173.5582,0.2,13.44,47.84626,-54.09684
2023-02-08 18:49:01+00:00,173.5215,0.2,13.44,47.84626,-54.09684
2023-02-08 18:59:01+00:00,173.2565,0.28,13.44,47.84626,-54.09684
2023-02-08 19:09:01+00:00,167.1748,0.57,13.44,47.84626,-54.09684
2023-02-08 19:19:01+00:00,166.5714,0.77,13.21,47.84626,-54.09684
2023-02-08 19:29:01+00:00,170.5098,0.98,13.21,47.84626,-54.09684
2023-02-08 19:39:01+00:00,166.4065,1.3,13.21,47.84626,-54.09684
2023-02-08 19:49:01+00:00,166.6282,1.39,13.21,47.84626,-54.09684
2023-02-08 19:59:01+00:00,175.9665,1.42,13.21,47.84626,-54.09684
2023-02-08 20:09:01+00:00,180.5948,1.5,13.21,47.84626,-54.09684
2023-02-08 20:19:01+00:00,180.8765,1.3,12.89,47.84626,-54.09684
2023-02-08 20:29:01+00:00,183.4448,1.3,12.89,47.84626,-54.09684
2023-02-08 20:39:01+00:00,193.1181,1.4,12.89,47.84626,-54.09684
2023-02-08 20:49:01+00:00,199.6648,1.42,12.89,47.84626,-54.09684
2023-02-08 20:59:01+00:00,200.6364,1.63,12.89,47.84626,-54.09684
2023-02-08 21:09:01+00:00,207.3697,1.68,12.89,47.84626,-54.09684
2023-02-08 21:19:00+00:00,213.4197,1.67,12.73,47.84626,-54.09684
2023-02-08 21:29:00+00:00,213.4781,1.7,12.73,47.84626,-54.09684
2023-02-08 21:39:00+00:00,220.9697,1.74,12.73,47.84626,-54.09684
2023-02-08 21:49:00+00:00,230.3964,1.77,12.73,47.84626,-54.09684
2023-02-08 21:59:00+00:00,235.7131,1.79,12.73,47.84626,-54.09684
2023-02-08 22:09:00+00:00,241.7748,1.78,12.73,47.84626,-54.09684
2023-02-08 22:19:00+00:00,248.0514,1.71,12.73,47.84626,-54.09684
2023-02-08 22:29:00+00:00,252.8214,1.75,12.73,47.84626,-54.09684
2023-02-08 22:39:00+00:00,259.518,1.76,12.73,47.84626,-54.09684
2023-02-08 22:49:00+00:00,263.2981,1.77,12.73,47.84626,-54.09684
2023-02-08 22:59:00+00:00,266.4848,1.79,12.73,47.84626,-54.09684
2023-02-08 23:09:00+00:00,274.7347,1.74,12.73,47.84626,-54.09684
2023-02-08 23:19:00+00:00,283.5947,1.76,12.65,47.84626,-54.09684
2023-02-08 23:29:00+00:00,288.4847,1.78,12.65,47.84626,-54.09684
2023-02-08 23:39:00+00:00,295.1764,1.79,12.65,47.84626,-54.09684
2023-02-08 23:49:00+00:00,302.8396,1.8,12.65,47.84626,-54.09684
2023-02-08 23:59:00+00:00,305.8264,1.8,12.65,47.84626,-54.09684
